Jackson, TN

10:10 PM CST on November 19, 2019 (GMT -0600)
McKellar-Sipes Regional

Weather History for KMKL - September, 2019

Change the Weather History Date:

Tuesday, September 17, 2019

  Actual Average Record
Temperature  
Mean Temperature 82 °F 71 °F  
Max Temperature 99 °F 84 °F 98 °F (1953)
Min Temperature 64 °F 59 °F 42 °F (2000)
Degree Days  
Heating Degree Days 0 1  
Month to date heating degree days 0 2  
Since 1 July heating degree days 0 2  
Cooling Degree Days 16 7  
Month to date cooling degree days 242 155  
Year to date cooling degree days 1703 1578  
Growing Degree Days 32 (Base 50)    
Moisture  
Dew Point 68 °F    
Average Humidity 71    
Maximum Humidity 100    
Minimum Humidity 35    
Precipitation  
Precipitation 0.00 in 0.12 in 2.11 in (1968)
Month to date precipitation 0.00 1.75  
Year to date precipitation 46.71 37.62  
Sea Level Pressure  
Sea Level Pressure 30.01 in    
Wind  
Wind Speed 1 mph ()    
Max Wind Speed 12 mph    
Max Gust Speed 15 mph    
Visibility 8.6 miles    
Events      
T = Trace of Precipitation, MM = Missing Value Source: Averaged Metar Reports

Daily Weather History Graph

Daily Weather History Graph

Search for Another Location

Airport or City:

Astronomy

Sep. 17, 2019 Rise Set
Actual Time 6:39 AM CDT 7:00 PM CDT
Civil Twilight 6:14 AM CDT 7:25 PM CDT
Nautical Twilight 5:44 AM CDT 7:55 PM CDT
Astronomical Twilight 5:13 AM CDT 8:25 PM CDT
Moon 9:09 PM CDT (9/17) 9:38 AM CDT (9/17)
Length of Visible Light 13h 11m
Length of Day
12h 20m
Waning Gibbous, 89% of the Moon is Illuminated
Sep 17
Waning Gibbous
Sep 21
Last Quarter
Sep 28
New
Oct 5
First Quarter
Oct 13
Full

Hourly Weather History & Observations

Time (CDT) Temp. Heat Index Dew Point Humidity Pressure Visibility Wind Dir Wind Speed Gust Speed Precip Events Conditions
12:53 AM 69.1 °F - 68.0 °F 96% 30.01 in 8.0 mi Calm Calm - N/A   Clear
2:53 AM 66.9 °F - 66.0 °F 97% 30.01 in 5.0 mi Calm Calm - N/A   Clear
3:53 AM 66.9 °F - 66.0 °F 97% 30.01 in 4.0 mi Calm Calm - N/A   Clear
4:53 AM 66.9 °F - 64.9 °F 93% 30.02 in 4.0 mi Calm Calm - N/A   Clear
5:53 AM 64.9 °F - 64.0 °F 97% 30.03 in 6.0 mi Calm Calm - N/A   Clear
6:53 AM 64.9 °F - 64.0 °F 97% 30.05 in 6.0 mi Calm Calm - N/A   Clear
7:53 AM 71.1 °F - 68.0 °F 90% 30.06 in 8.0 mi Calm Calm - N/A   Clear
8:53 AM 81.0 °F 84.1 °F 69.1 °F 67% 30.06 in 10.0 mi Calm Calm - N/A   Clear
9:53 AM 86.0 °F 91.5 °F 71.1 °F 61% 30.06 in 10.0 mi Calm Calm - N/A   Clear
10:53 AM 91.9 °F 98.4 °F 71.1 °F 50% 30.06 in 10.0 mi Variable 5.8 mph - N/A   Clear
11:53 AM 95.0 °F 100.7 °F 69.1 °F 43% 30.06 in 10.0 mi North - - N/A   Clear
12:53 PM 93.9 °F 97.5 °F 66.9 °F 41% 30.04 in 10.0 mi North 3.5 mph - N/A   Scattered Clouds
1:53 PM 96.1 °F 99.9 °F 66.9 °F 38% 30.01 in 10.0 mi Variable 3.5 mph - N/A   Clear
2:53 PM 98.1 °F 102.4 °F 66.9 °F 36% 29.99 in 10.0 mi North 6.9 mph - N/A   Clear
3:53 PM 97.0 °F 100.4 °F 66.0 °F 36% 29.97 in 10.0 mi West 5.8 mph - N/A   Partly Cloudy
4:53 PM 95.0 °F 97.4 °F 64.9 °F 37% 29.96 in 10.0 mi NNW 9.2 mph - N/A   Partly Cloudy
5:53 PM 90.0 °F 94.5 °F 69.1 °F 50% 29.96 in 10.0 mi North 3.5 mph - N/A   Clear
6:53 PM 84.0 °F 90.2 °F 73.0 °F 69% 29.96 in 10.0 mi Calm Calm - N/A   Clear
7:53 PM 79.0 °F - 72.0 °F 79% 29.97 in 10.0 mi Calm Calm - N/A   Clear
8:53 PM 75.9 °F - 72.0 °F 87% 29.98 in 10.0 mi Calm Calm - N/A   Clear
9:53 PM 73.9 °F - 72.0 °F 93% 29.99 in 10.0 mi Calm Calm - N/A   Clear
10:53 PM 73.9 °F - 71.1 °F 91% 29.99 in 9.0 mi Calm Calm - N/A   Clear
11:53 PM 72.0 °F - 70.0 °F 93% 29.99 in 7.0 mi SSW 3.5 mph - N/A   Clear